• In Hungary
  • List of Countries
  • For 7 days
  • Water Temperature
  • Satellite Maps
  • Weather Map
  • News
  • Weather Widgets
  • user-avatar
    Login

    Hourly Weather Goa

    Today, 17 January, Wednesday

    Time Temperature Precipitation Wind Pressure Humidity
    00:00 +26°C° 0 mm 2 mps 753 mmHg 60%
    01:00 +25°C° 0 mm 2 mps 752 mmHg 59%
    02:00 +25°C° 0 mm 2 mps 752 mmHg 57%
    03:00 +25°C° 0 mm 2 mps 752 mmHg 56%
    04:00 +25°C° 0 mm 2 mps 752 mmHg 54%
    05:00 +25°C° 0 mm 2 mps 752 mmHg 52%
    06:00 +26°C° 0 mm 2 mps 753 mmHg 50%
    07:00 +27°C° 0 mm 2 mps 753 mmHg 48%
    08:00 +28°C° 0 mm 2 mps 753 mmHg 46%
    09:00 +31°C° 0 mm 2 mps 753 mmHg 40%
    10:00 +35°C° 0 mm 2 mps 754 mmHg 33%
    11:00 +38°C° 0 mm 3 mps 754 mmHg 27%
    12:00 +38°C° 0 mm 3 mps 753 mmHg 29%
    13:00 +38°C° 0 mm 3 mps 752 mmHg 30%
    14:00 +37°C° 0 mm 3 mps 752 mmHg 32%
    15:00 +36°C° 0 mm 3 mps 752 mmHg 40%
    16:00 +34°C° 0 mm 3 mps 752 mmHg 49%
    17:00 +31°C° 0 mm 2 mps 751 mmHg 57%
    18:00 +29°C° 0 mm 2 mps 752 mmHg 65%
    19:00 +27°C° 0 mm 2 mps 753 mmHg 73%
    20:00 +26°C° 0 mm 2 mps 753 mmHg 82%
    21:00 +25°C° 0 mm 2 mps 753 mmHg 81%
    22:00 +25°C° 0 mm 2 mps 753 mmHg 80%
    23:00 +24°C° 0 mm 2 mps 753 mmHg 79%

    Tomorrow, 18 January, Thursday

    Time Temperature Precipitation Wind Pressure Humidity
    00:00 +24°C° 0 mm 2 mps 753 mmHg 77%
    01:00 +24°C° 0 mm 3 mps 753 mmHg 74%
    02:00 +24°C° 0 mm 3 mps 752 mmHg 72%
    03:00 +22°C° 0 mm 3 mps 752 mmHg 69%
    04:00 +22°C° 0 mm 3 mps 752 mmHg 66%
    05:00 +22°C° 0 mm 3 mps 752 mmHg 63%
    06:00 +24°C° 0 mm 3 mps 752 mmHg 58%
    07:00 +26°C° 0 mm 3 mps 753 mmHg 54%
    08:00 +27°C° 0 mm 3 mps 754 mmHg 49%
    09:00 +30°C° 0 mm 3 mps 754 mmHg 41%
    10:00 +34°C° 0 mm 3 mps 754 mmHg 33%
    11:00 +37°C° 0 mm 3 mps 754 mmHg 25%
    12:00 +38°C° 0 mm 3 mps 753 mmHg 25%
    13:00 +38°C° 0 mm 4 mps 753 mmHg 26%
    14:00 +40°C° 0 mm 4 mps 752 mmHg 26%
    15:00 +37°C° 0 mm 4 mps 752 mmHg 35%
    16:00 +35°C° 0 mm 4 mps 752 mmHg 44%
    17:00 +33°C° 0 mm 4 mps 752 mmHg 53%
    18:00 +30°C° 0 mm 4 mps 752 mmHg 63%
    19:00 +28°C° 0 mm 3 mps 753 mmHg 73%
    20:00 +26°C° 0 mm 3 mps 753 mmHg 83%
    21:00 +25°C° 0 mm 3 mps 753 mmHg 79%
    22:00 +25°C° 0 mm 3 mps 753 mmHg 75%
    23:00 +24°C° 0 mm 3 mps 754 mmHg 71%

    Day after tomorrow, 19 January, Friday

    Time Temperature Precipitation Wind Pressure Humidity
    00:00 +24°C° 0 mm 3 mps 753 mmHg 66%
    01:00 +24°C° 0 mm 3 mps 753 mmHg 61%
    02:00 +24°C° 0 mm 3 mps 752 mmHg 55%
    03:00 +22°C° 0 mm 3 mps 752 mmHg 52%
    04:00 +22°C° 0 mm 3 mps 752 mmHg 49%
    05:00 +22°C° 0 mm 3 mps 752 mmHg 45%
    06:00 +24°C° 0 mm 3 mps 753 mmHg 43%
    07:00 +25°C° 0 mm 4 mps 754 mmHg 41%
    08:00 +26°C° 0 mm 4 mps 754 mmHg 39%
    09:00 +29°C° 0 mm 4 mps 754 mmHg 33%
    10:00 +33°C° 0 mm 4 mps 755 mmHg 28%
    11:00 +36°C° 0 mm 4 mps 755 mmHg 22%
    12:00 +38°C° 0 mm 4 mps 754 mmHg 21%
    13:00 +40°C° 0 mm 4 mps 753 mmHg 20%
    14:00 +40°C° 0 mm 3 mps 752 mmHg 19%
    15:00 +38°C° 0 mm 4 mps 752 mmHg 24%
    16:00 +36°C° 0 mm 4 mps 752 mmHg 29%
    17:00 +34°C° 0 mm 4 mps 752 mmHg 34%
    18:00 +32°C° 0 mm 4 mps 752 mmHg 42%
    19:00 +28°C° 0 mm 4 mps 753 mmHg 50%
    20:00 +26°C° 0 mm 4 mps 753 mmHg 58%
    21:00 +25°C° 0 mm 4 mps 753 mmHg 55%
    22:00 +25°C° 0 mm 5 mps 754 mmHg 51%
    23:00 +23°C° 0 mm 5 mps 754 mmHg 48%

    20 January, Saturday

    Time Temperature Precipitation Wind Pressure Humidity
    00:00 +23°C° 0 mm 5 mps 753 mmHg 45%
    01:00 +22°C° 0 mm 5 mps 753 mmHg 42%
    02:00 +22°C° 0 mm 4 mps 752 mmHg 39%
    03:00 +21°C° 0 mm 4 mps 752 mmHg 38%
    04:00 +21°C° 0 mm 4 mps 752 mmHg 37%
    05:00 +21°C° 0 mm 4 mps 752 mmHg 36%
    06:00 +22°C° 0 mm 4 mps 752 mmHg 35%
    07:00 +23°C° 0 mm 4 mps 753 mmHg 35%
    08:00 +26°C° 0 mm 4 mps 754 mmHg 34%
    09:00 +29°C° 0 mm 4 mps 754 mmHg 29%
    10:00 +33°C° 0 mm 3 mps 754 mmHg 24%
    11:00 +36°C° 0 mm 3 mps 754 mmHg 19%
    12:00 +38°C° 0 mm 3 mps 753 mmHg 18%
    13:00 +39°C° 0 mm 3 mps 752 mmHg 18%
    14:00 +40°C° 0 mm 3 mps 751 mmHg 17%
    15:00 +38°C° 0 mm 4 mps 751 mmHg 22%
    16:00 +36°C° 0 mm 4 mps 751 mmHg 28%
    17:00 +33°C° 0 mm 5 mps 751 mmHg 33%
    18:00 +30°C° 0 mm 4 mps 751 mmHg 41%
    19:00 +27°C° 0 mm 4 mps 752 mmHg 48%
    20:00 +25°C° 0 mm 3 mps 752 mmHg 55%
    21:00 +25°C° 0 mm 3 mps 752 mmHg 52%
    22:00 +24°C° 0 mm 3 mps 753 mmHg 49%
    23:00 +24°C° 0 mm 3 mps 753 mmHg 46%

    21 January, Sunday

    Time Temperature Precipitation Wind Pressure Humidity
    00:00 +22°C° 0 mm 3 mps 752 mmHg 43%
    01:00 +22°C° 0 mm 3 mps 752 mmHg 40%
    02:00 +22°C° 0 mm 3 mps 751 mmHg 37%
    03:00 +21°C° 0 mm 3 mps 751 mmHg 35%
    04:00 +21°C° 0 mm 3 mps 751 mmHg 34%
    05:00 +21°C° 0 mm 3 mps 751 mmHg 33%
    06:00 +22°C° 0 mm 3 mps 752 mmHg 33%
    07:00 +24°C° 0 mm 3 mps 752 mmHg 34%
    08:00 +25°C° 0 mm 3 mps 753 mmHg 34%
    09:00 +29°C° 0 mm 3 mps 753 mmHg 29%
    10:00 +33°C° 0 mm 3 mps 753 mmHg 25%
    11:00 +37°C° 0 mm 3 mps 753 mmHg 20%
    12:00 +37°C° 0 mm 3 mps 752 mmHg 20%
    13:00 +38°C° 0 mm 3 mps 751 mmHg 19%
    14:00 +38°C° 0 mm 4 mps 750 mmHg 19%
    15:00 +36°C° 0 mm 4 mps 750 mmHg 27%
    16:00 +34°C° 0 mm 4 mps 750 mmHg 35%
    17:00 +32°C° 0 mm 5 mps 750 mmHg 43%
    18:00 +29°C° 0 mm 4 mps 751 mmHg 52%
    19:00 +27°C° 0 mm 3 mps 751 mmHg 62%
    20:00 +24°C° 0 mm 3 mps 752 mmHg 71%
    21:00 +24°C° 0 mm 3 mps 752 mmHg 69%
    22:00 +24°C° 0 mm 3 mps 752 mmHg 68%
    23:00 +24°C° 0 mm 2 mps 752 mmHg 66%

    22 January, Monday

    Time Temperature Precipitation Wind Pressure Humidity
    00:00 +23°C° 0 mm 2 mps 751 mmHg 63%
    01:00 +23°C° 0 mm 2 mps 751 mmHg 60%
    02:00 +23°C° 0 mm 2 mps 751 mmHg 57%
    03:00 +23°C° 0 mm 2 mps 751 mmHg 55%
    04:00 +21°C° 0 mm 2 mps 750 mmHg 53%
    05:00 +22°C° 0 mm 1 mps 750 mmHg 51%
    06:00 +23°C° 0 mm 1 mps 751 mmHg 48%
    07:00 +24°C° 0 mm 2 mps 751 mmHg 45%
    08:00 +25°C° 0 mm 2 mps 752 mmHg 43%
    09:00 +28°C° 0 mm 2 mps 752 mmHg 37%
    10:00 +31°C° 0 mm 2 mps 752 mmHg 32%
    11:00 +35°C° 0 mm 2 mps 752 mmHg 26%
    12:00 +35°C° 0 mm 2 mps 751 mmHg 29%
    13:00 +35°C° 0 mm 3 mps 751 mmHg 31%
    14:00 +35°C° 0 mm 3 mps 750 mmHg 34%
    15:00 +34°C° 0 mm 3 mps 750 mmHg 43%
    16:00 +31°C° 0 mm 3 mps 750 mmHg 52%
    17:00 +29°C° 0 mm 4 mps 750 mmHg 61%
    18:00 +27°C° 0 mm 3 mps 751 mmHg 67%
    19:00 +26°C° 0 mm 3 mps 751 mmHg 74%
    20:00 +24°C° 0 mm 2 mps 752 mmHg 80%
    21:00 +24°C° 0 mm 2 mps 752 mmHg 80%
    22:00 +24°C° 0 mm 2 mps 752 mmHg 81%
    23:00 +23°C° 0 mm 2 mps 752 mmHg 81%
    Show more